This demonstration page uses our WeatherBlox Daily Observations layout. Learn more.

Left ArrowRight Arrow

39.08367, -84.50855

Hourly Observations for December 15, 2016

Temp ( °F °C ) Dew Point ( °F °C ) Humidity (%) Winds ( mph kmh ) Pressure ( in mb ) Visibility ( mi km ) Precip ( " mm )
12:53 am 00:53 Clear 17 -8.3 1 -17.2 49 49 W 9 15 30.32 1027 10 16 0.00 0.00
1:53 am 01:53 Clear 15 -9.4 0 -17.8 51 51 W 15 24 30.34 1028 10 16 0.00 0.00
2:53 am 02:53 Clear 14 -10 -1 -18.3 51 51 WNW 10 17 30.37 1028 10 16 0.00 0.00
3:53 am 03:53 Clear 13 -10.6 -1 -18.3 54 54 NW 12 19 30.38 1029 10 16 0.00 0.00
4:53 am 04:53 Clear 12 -11.1 -2 -18.9 53 53 WNW 14 22 30.39 1029 10 16 0.00 0.00
5:53 am 05:53 Clear 11 -11.7 -1 -18.3 58 58 W 12 19 30.41 1030 10 16 0.00 0.00
6:53 am 06:53 Clear 10 -12.2 -3 -19.4 55 55 WNW 10 17 30.43 1031 10 16 0.00 0.00
7:53 am 07:53 Sunny 9 -12.8 -3 -19.4 58 58 W 15 24 30.46 1032 10 16 0.00 0.00
8:53 am 08:53 Sunny 10 -12.2 -2 -18.9 58 58 W 14 22 30.49 1032 10 16 0.00 0.00
9:53 am 09:53 Sunny 12 -11.1 -3 -19.4 51 51 W 13 20 30.51 1033 10 16 0.00 0.00
10:53 am 10:53 Sunny 14 -10 -3 -19.4 47 47 W 10 17 30.53 1034 10 16 0.00 0.00
11:53 am 11:53 Sunny 16 -8.9 -5 -20.6 38 38 NW 9 15 30.52 1033 10 16 0.00 0.00
12:53 pm 12:53 Sunny 17 -8.3 -5 -20.6 37 37 W 10 17 30.50 1033 10 16 0.00 0.00
1:53 pm 13:53 Sunny 19 -7.2 -6 -21.1 32 32 WNW 10 17 30.50 1033 10 16 0.00 0.00
2:53 pm 14:53 Sunny 20 -6.7 -7 -21.7 29 29 N 7 11 30.50 1033 10 16 0.00 0.00
3:53 pm 15:53 Sunny 19 -7.2 -5 -20.6 34 34 W 9 15 30.52 1034 10 16 0.00 0.00
4:53 pm 16:53 Sunny 16 -8.9 -6 -21.1 37 37 NW 7 11 30.53 1034 10 16 0.00 0.00
5:53 pm 17:53 Clear 14 -10 -5 -20.6 42 42 NW 7 11 30.53 1034 10 16 0.00 0.00
6:53 pm 18:53 Clear 13 -10.6 -7 -21.7 40 40 NNW 6 9 30.52 1034 10 16 0.00 0.00
7:53 pm 19:53 Clear 12 -11.1 -5 -20.6 46 46 NNW 3 6 30.53 1034 10 16 0.00 0.00
8:53 pm 20:53 Clear 12 -11.1 -6 -21.1 44 44 NNW 5 7 30.51 1033 10 16 0.00 0.00
9:53 pm 21:53 Clear 11 -11.7 2 -16.7 67 67 Calm 30.50 1033 10 16 0.00 0.00
10:53 pm 22:53 Clear 11 -11.7 2 -16.7 67 67 Calm 30.49 1033 10 16 0.00 0.00
11:53 pm 23:53 Clear 13 -10.6 4 -15.6 67 67 NE 3 6 30.50 1033 10 16 0.00 0.00

Powered by AerisWeather